Weather History for KPHN - October, 2013

Change the Weather History Date:

Wednesday, October 9, 2013

  Actual Average (WUND) Record (WUND)
Temperature  
Mean Temperature 52 °F -  
Max Temperature 69 °F - - (-1)
Min Temperature 35 °F - - (-1)
Degree Days  
Heating Degree Days 13    
Growing Degree Days 2 (Base 50)    
Moisture  
Dew Point 45 °F    
Average Humidity 82    
Maximum Humidity 100    
Minimum Humidity 49    
Precipitation  
Precipitation 0.00 in - - ()
Sea Level Pressure  
Sea Level Pressure 30.29 in    
Wind  
Wind Speed 2 mph (SSE)    
Max Wind Speed 9 mph    
Max Gust Speed -    
Visibility 8 miles    
Events Fog    
Averages and records for this station are not official NWS values.
T = Trace of Precipitation, MM = Missing Value Source: NWS Daily Summary

Daily Weather History Graph

Daily Weather History Graph

Search for Another Location

Airport or City:

Trip Planner

Search our weather history database for the weather conditions in past years. The results will help you decide how hot, cold, wet, or windy it might be!

Date:

Astronomy

Oct. 09, 2013 Rise Set
Actual Time 7:36 AM EDT 6:57 PM EDT
Civil Twilight 7:08 AM EDT 7:25 PM EDT
Nautical Twilight 6:35 AM EDT 7:58 PM EDT
Astronomical Twilight 6:02 AM EDT 8:31 PM EDT
Moon 12:36 PM EDT (10/9) 10:24 PM EDT (10/9)
Length of Visible Light 12h 17m
Length of Day
11h 20m
Waxing Crescent, 25% of the Moon is Illuminated
Oct 9
Waxing Crescent
Oct 11
First Quarter
Oct 18
Full
Oct 26
Last Quarter
Nov 3
New

Hourly Weather History & Observations

Time (EDT) Temp. Windchill Dew Point Humidity Pressure Visibility Wind Dir Wind Speed Gust Speed Precip Events Conditions
12:16 AM 39.2 °F - 39.2 °F 100% 30.29 in 0.5 mi Calm Calm - N/A Fog Fog
12:36 AM 39.2 °F - 39.2 °F 100% 30.29 in 1.8 mi Calm Calm - N/A   Mist
12:56 AM 39.2 °F - 39.2 °F 100% 30.28 in 4.0 mi Calm Calm - N/A   Clear
1:16 AM 39.2 °F - 39.2 °F 100% 30.28 in 10.0 mi Calm Calm - N/A   Clear
1:36 AM 39.2 °F - 39.2 °F 100% 30.28 in 0.8 mi Calm Calm - N/A   Mist
1:56 AM 39.2 °F - 39.2 °F 100% 30.29 in 0.5 mi Calm Calm - N/A Fog Fog
2:16 AM 39.2 °F 37.0 °F 39.2 °F 100% 30.29 in 4.0 mi NW 3.5 mph - N/A   Scattered Clouds
2:36 AM 39.2 °F - 39.2 °F 100% 30.29 in 5.0 mi Calm Calm - N/A   Clear
2:56 AM 39.2 °F - 39.2 °F 100% 30.29 in 7.0 mi Calm Calm - N/A   Clear
3:16 AM 37.4 °F - 37.4 °F 100% 30.29 in 5.0 mi Calm Calm - N/A   Clear
3:36 AM 37.4 °F - 37.4 °F 100% 30.29 in 0.8 mi Calm Calm - N/A   Mist
3:56 AM 39.2 °F - 39.2 °F 100% 30.29 in 1.8 mi Calm Calm - N/A   Mist
4:16 AM 37.4 °F - 37.4 °F 100% 30.29 in 2.0 mi Calm Calm - N/A   Clear
4:36 AM 37.4 °F - 37.4 °F 100% 30.29 in 10.0 mi Calm Calm - N/A   Clear
4:56 AM 37.4 °F - 37.4 °F 100% 30.29 in 0.5 mi Calm Calm - N/A Fog Fog
5:16 AM 35.6 °F - 35.6 °F 100% 30.30 in 4.0 mi Calm Calm - N/A   Clear
5:36 AM 35.6 °F - 35.6 °F 100% 30.30 in 0.5 mi Calm Calm - N/A Fog Fog
5:56 AM 37.4 °F - 37.4 °F 100% 30.30 in 4.0 mi Calm Calm - N/A   Clear
6:16 AM 37.4 °F - 37.4 °F 100% 30.30 in 4.0 mi Calm Calm - N/A   Clear
6:36 AM 35.6 °F - 35.6 °F 100% 30.31 in 4.0 mi Calm Calm - N/A   Clear
6:56 AM 35.6 °F - 35.6 °F 100% 30.31 in 7.0 mi Calm Calm - N/A   Clear
7:16 AM 35.6 °F - 35.6 °F 100% 30.32 in 5.0 mi Calm Calm - N/A   Clear
7:36 AM 35.6 °F - 35.6 °F 100% 30.31 in 0.2 mi Calm Calm - N/A Fog Fog
7:56 AM 35.6 °F - 35.6 °F 100% 30.32 in 1.2 mi Calm Calm - N/A   Mist
8:16 AM 37.4 °F - 37.4 °F 100% 30.32 in 10.0 mi Calm Calm - N/A   Clear
8:36 AM 39.2 °F - 39.2 °F 100% 30.32 in 10.0 mi Calm Calm - N/A   Clear
8:56 AM 42.8 °F - 42.8 °F 100% 30.33 in 10.0 mi Calm Calm - N/A   Clear
9:16 AM 48.2 °F - 48.2 °F 100% 30.33 in 10.0 mi Calm Calm - N/A   Clear
9:36 AM 51.8 °F - 51.8 °F 100% 30.33 in 10.0 mi Calm Calm - N/A   Clear
9:56 AM 57.2 °F - 55.4 °F 94% 30.33 in 10.0 mi ESE 3.5 mph - N/A   Clear
10:16 AM 59.0 °F - 55.4 °F 88% 30.33 in 10.0 mi Calm Calm - N/A   Clear
10:36 AM 60.8 °F - 55.4 °F 82% 30.34 in 10.0 mi SE 4.6 mph - N/A   Clear
10:56 AM 62.6 °F - 55.4 °F 77% 30.33 in 10.0 mi SE 6.9 mph - N/A   Clear
11:11 AM 62.6 °F - 53.6 °F 72% 30.33 in 10.0 mi SE 6.9 mph - N/A   Clear
11:25 AM 64.4 °F - 53.6 °F 68% 30.33 in 10.0 mi SE 3.5 mph - N/A   Clear
11:57 AM 64.4 °F - 51.8 °F 64% 30.33 in 10.0 mi SE 6.9 mph - N/A   Clear
12:07 PM 66.2 °F - 50.0 °F 56% 30.33 in 10.0 mi SE 4.6 mph - N/A   Clear
12:19 PM 66.2 °F - 50.0 °F 56% 30.33 in 10.0 mi SSE 8.1 mph - N/A   Clear
12:37 PM 66.2 °F - 50.0 °F 56% 30.33 in 10.0 mi SSE 4.6 mph - N/A   Clear
12:46 PM 66.2 °F - 51.8 °F 60% 30.32 in 10.0 mi ESE 8.1 mph - N/A   Clear
1:15 PM 68.0 °F - 51.8 °F 56% 30.31 in 10.0 mi SE 6.9 mph - N/A   Clear
1:36 PM 68.0 °F - 51.8 °F 56% 30.30 in 10.0 mi SSE 9.2 mph - N/A   Clear
1:44 PM 68.0 °F - 50.0 °F 52% 30.30 in 10.0 mi South 3.5 mph - N/A   Clear
2:01 PM 68.0 °F - 50.0 °F 52% 30.29 in 10.0 mi SSE 8.1 mph - N/A   Clear
2:28 PM 69.8 °F - 50.0 °F 49% 30.28 in 10.0 mi SSE 5.8 mph - N/A   Clear
2:44 PM 69.8 °F - 51.8 °F 53% 30.28 in 10.0 mi SSE 8.1 mph - N/A   Clear
3:15 PM 69.8 °F - 51.8 °F 53% 30.27 in 10.0 mi South 8.1 mph - N/A   Clear
3:35 PM 69.8 °F - 50.0 °F 49% 30.27 in 10.0 mi SE 3.5 mph - N/A   Clear
3:55 PM 69.8 °F - 50.0 °F 49% 30.26 in 10.0 mi South 5.8 mph - N/A   Clear
4:03 PM 69.8 °F - 50.0 °F 49% 30.26 in 10.0 mi SSE 6.9 mph - N/A   Clear
4:30 PM 69.8 °F - 50.0 °F 49% 30.25 in 10.0 mi SSE 8.1 mph - N/A   Clear
4:48 PM 68.0 °F - 53.6 °F 60% 30.25 in 10.0 mi SSW 3.5 mph - N/A   Clear
5:16 PM 68.0 °F - 53.6 °F 60% 30.25 in 10.0 mi SSW 5.8 mph - N/A   Clear
5:36 PM 66.2 °F - 51.8 °F 60% 30.25 in 10.0 mi SW 3.5 mph - N/A   Clear
5:55 PM 66.2 °F - 51.8 °F 60% 30.25 in 10.0 mi Calm Calm - N/A   Clear
6:16 PM 64.4 °F - 48.2 °F 56% 30.25 in 10.0 mi SSE 5.8 mph - N/A   Clear
6:36 PM 62.6 °F - 46.4 °F 55% 30.25 in 10.0 mi SE 4.6 mph - N/A   Clear
6:56 PM 59.0 °F - 46.4 °F 63% 30.25 in 10.0 mi SE 3.5 mph - N/A   Clear
7:16 PM 59.0 °F - 46.4 °F 63% 30.25 in 10.0 mi SE 5.8 mph - N/A   Clear
7:36 PM 59.0 °F - 46.4 °F 63% 30.25 in 10.0 mi SSE 4.6 mph - N/A   Clear
7:56 PM 55.4 °F - 46.4 °F 72% 30.25 in 10.0 mi SE 3.5 mph - N/A   Clear
8:16 PM 57.2 °F - 46.4 °F 67% 30.25 in 10.0 mi SE 4.6 mph - N/A   Clear
8:36 PM 51.8 °F - 46.4 °F 82% 30.25 in 10.0 mi Calm Calm - N/A   Clear
8:56 PM 50.0 °F - 46.4 °F 87% 30.25 in 10.0 mi Calm Calm - N/A   Clear
9:16 PM 48.2 °F - 46.4 °F 93% 30.25 in 10.0 mi Calm Calm - N/A   Clear
9:36 PM 44.6 °F - 44.6 °F 100% 30.25 in 10.0 mi Calm Calm - N/A   Clear
9:56 PM 42.8 °F - 42.8 °F 100% 30.26 in 10.0 mi Calm Calm - N/A   Clear
10:16 PM 44.6 °F 43.1 °F 44.6 °F 100% 30.26 in 10.0 mi WNW 3.5 mph - N/A   Clear
10:36 PM 44.6 °F - 44.6 °F 100% 30.26 in 10.0 mi Calm Calm - N/A   Clear
10:56 PM 42.8 °F - 42.8 °F 100% 30.26 in 5.0 mi Calm Calm - N/A   Clear
11:16 PM 41.0 °F - 41.0 °F 100% 30.26 in 0.8 mi Calm Calm - N/A   Mist
11:36 PM 42.8 °F - 42.8 °F 100% 30.25 in 7.0 mi Calm Calm - N/A   Clear
11:56 PM 41.0 °F - 41.0 °F 100% 30.25 in 7.0 mi Calm Calm - N/A   Clear